< < Back
Terminal Aerodrome Forecast


Current Version              Previous Versions:   1  2  3  4  5  6  7  8  9  

Terminal Aerodrome Forecast

129
FTUS42 KFFC 081127
TAFATL
TAF
KATL 081127Z 0812/0918 25005KT P6SM SCT050 BKN120
     FM081600 26009KT P6SM BKN045
     FM081800 27015G25KT P6SM SCT035 BKN050
      TEMPO 0818/0822 6SM -SHRA BKN035
     FM090000 30012G21KT P6SM OVC025 PROB30 0900/0906 6SM -SHSN
      BKN015=

Latest METAR

366
SAUS70 KWBC 081400 RRD
MTRATL
METAR KATL 081352Z 25007KT 10SM FEW065 BKN120 BKN200 04/M04 A2985 RMK
AO2 SLP110 T00441039


USA.gov is the U.S. government's official web portal to all federal, state and local government web resources and services.